This is the latest recevied weather packets stored in our database for station/object KC3ROS. If no packets are shown the sender has not sent any weather packets the latest 10 day(s).
| Time | Temp. | Humidity | Pressure | Rain* | Wind** | Luminosity | Snow |
|---|---|---|---|---|---|---|---|
| 1777556443 | 5° C | 99% | 1010.2 hPa | 0 mm | - | 70 W/m² | - |
| 1777556138 | 5° C | 99% | 1010.3 hPa | 0 mm | - | 58 W/m² | - |
| 1777555833 | 5.56° C | 99% | 1010.2 hPa | 0 mm | - | 50 W/m² | - |
| 1777555529 | 5.56° C | 99% | 1010.3 hPa | 0 mm | - | 77 W/m² | - |
| 1777555226 | 5.56° C | 99% | 1010 hPa | 0 mm | - | 125 W/m² | - |
| 1777554923 | 5.56° C | 99% | 1010 hPa | 0 mm | - | 82 W/m² | - |
| 1777554620 | 5.56° C | 99% | 1010 hPa | 0 mm | - | 78 W/m² | - |
| 1777554316 | 5.56° C | 99% | 1009.9 hPa | 0 mm | - | 57 W/m² | - |
| 1777554014 | 5.56° C | 99% | 1009.8 hPa | 0 mm | - | 43 W/m² | - |
| 1777553710 | 5.56° C | 99% | 1009.9 hPa | 0 mm | - | 44 W/m² | - |
| 1777553407 | 6.11° C | 99% | 1009.9 hPa | 0 mm | - | 29 W/m² | - |
| 1777553103 | 6.11° C | 99% | 1009.6 hPa | 0 mm | - | 49 W/m² | - |
| 1777552797 | 5.56° C | 99% | 1009.6 hPa | 0 mm | - | 73 W/m² | - |
| 1777552493 | 6.11° C | 99% | 1009.6 hPa | 0 mm | - | 56 W/m² | - |
| 1777552190 | 6.11° C | 99% | 1009.6 hPa | 0 mm | - | 39 W/m² | - |
| 1777551887 | 6.67° C | 99% | 1009.6 hPa | 0 mm | - | 16 W/m² | - |
| 1777551584 | 6.67° C | 99% | 1009.4 hPa | 0 mm | - | 13 W/m² | - |
| 1777551281 | 7.22° C | 99% | 1009.3 hPa | 0 mm | - | 17 W/m² | - |
| 1777550978 | 7.22° C | 99% | 1009.3 hPa | 0.51 mm | - | 20 W/m² | - |
| 1777550675 | 7.22° C | 99% | 1009.2 hPa | 0.51 mm | - | 34 W/m² | - |
| 1777550371 | 7.22° C | 99% | 1009.2 hPa | 0 mm | - | 49 W/m² | - |
| 1777550067 | 7.22° C | 99% | 1009.2 hPa | 0.51 mm | - | 36 W/m² | - |
| 1777549764 | 7.22° C | 99% | 1009 hPa | 1.27 mm | - | 25 W/m² | - |
| 1777549460 | 7.22° C | 99% | 1009.1 hPa | 2.29 mm | - | 30 W/m² | - |
| 1777549156 | 7.78° C | 98% | 1008.8 hPa | 4.83 mm | - | 17 W/m² | - |
* Rain latest hour (hover to see other rain measurements)
** Current wind speed in m/s (hover to see current wind gust speed)